| time (UTC) | temp C | wind direction | speed KPH | gust KPH | rain 1hr cm | rain 24hr cm | rain mn cm | humidity % | barometer mb |
| 20260505041552 | 18 | 215 | 12.9 | 17.7 | 0.00 | 0.05 | 0.00 | 65 | 1008.0 |
| 20260505041041 | 18 | 210 | 12.9 | 22.5 | 0.00 | 0.05 | 0.00 | 65 | 1008.0 |
| 20260505040541 | 18 | 202 | 12.9 | 22.5 | 0.00 | 0.05 | 0.00 | 65 | 1007.9 |
| 20260505040051 | 18 | 200 | 12.9 | 22.5 | 0.00 | 0.05 | 0.00 | 65 | 1007.9 |
| 20260505035538 | 18 | 205 | 14.5 | 22.5 | 0.00 | 0.05 | 0.05 | 65 | 1007.8 |
| 20260505035039 | 18 | 204 | 12.9 | 22.5 | 0.00 | 0.05 | 0.05 | 65 | 1007.8 |
| 20260505034538 | 18 | 202 | 14.5 | 20.9 | 0.00 | 0.05 | 0.05 | 64 | 1007.7 |
| 20260505034038 | 18 | 216 | 12.9 | 25.7 | 0.00 | 0.05 | 0.05 | 64 | 1007.8 |
| 20260505033538 | 19 | 221 | 14.5 | 25.7 | 0.00 | 0.05 | 0.05 | 64 | 1007.7 |
| 20260505033044 | 19 | 221 | 12.9 | 22.5 | 0.00 | 0.05 | 0.05 | 64 | 1007.8 |
| 20260505032538 | 19 | 203 | 12.9 | 19.3 | 0.00 | 0.05 | 0.05 | 64 | 1007.8 |
| 20260505032038 | 19 | 211 | 14.5 | 22.5 | 0.00 | 0.05 | 0.05 | 64 | 1007.8 |
| 20260505031544 | 19 | 229 | 14.5 | 22.5 | 0.00 | 0.05 | 0.05 | 63 | 1007.9 |
| 20260505031037 | 19 | 218 | 12.9 | 19.3 | 0.00 | 0.05 | 0.05 | 63 | 1007.7 |
| 20260505030537 | 19 | 211 | 14.5 | 19.3 | 0.00 | 0.05 | 0.05 | 63 | 1007.8 |
| 20260505030040 | 19 | 211 | 11.3 | 17.7 | 0.00 | 0.05 | 0.05 | 63 | 1007.7 |
| 20260505025536 | 19 | 207 | 11.3 | 16.1 | 0.00 | 0.05 | 0.05 | 63 | 1007.7 |
| 20260505025036 | 19 | 202 | 8.0 | 14.5 | 0.00 | 0.05 | 0.05 | 63 | 1007.5 |
| 20260505024536 | 19 | 216 | 9.7 | 16.1 | 0.00 | 0.05 | 0.05 | 63 | 1007.5 |
| 20260505024036 | 19 | 212 | 9.7 | 20.9 | 0.00 | 0.05 | 0.05 | 63 | 1007.3 |
| 20260505023537 | 19 | 217 | 14.5 | 20.9 | 0.00 | 0.05 | 0.05 | 63 | 1007.2 |
| 20260505023042 | 19 | 204 | 11.3 | 17.7 | 0.00 | 0.05 | 0.05 | 62 | 1007.2 |
| 20260505022535 | 19 | 202 | 11.3 | 16.1 | 0.00 | 0.05 | 0.05 | 62 | 1007.2 |
| 20260505022035 | 19 | 198 | 11.3 | 16.1 | 0.00 | 0.05 | 0.05 | 62 | 1007.0 |
| 20260505021540 | 20 | 220 | 9.7 | 16.1 | 0.00 | 0.05 | 0.05 | 62 | 1007.0 |
| 20260505021035 | 20 | 208 | 12.9 | 17.7 | 0.00 | 0.05 | 0.05 | 62 | 1007.1 |
| 20260505020534 | 20 | 211 | 11.3 | 19.3 | 0.00 | 0.05 | 0.05 | 62 | 1007.0 |
| 20260505020036 | 20 | 221 | 9.7 | 19.3 | 0.00 | 0.05 | 0.05 | 62 | 1007.0 |
| 20260505015533 | 20 | 218 | 11.3 | 16.1 | 0.00 | 0.08 | 0.05 | 62 | 1006.9 |
| 20260505015033 | 20 | 211 | 11.3 | 17.7 | 0.00 | 0.08 | 0.05 | 62 | 1006.9 |
| 20260505014540 | 20 | 204 | 11.3 | 17.7 | 0.00 | 0.08 | 0.05 | 62 | 1006.9 |
| 20260505014033 | 20 | 206 | 9.7 | 14.5 | 0.00 | 0.08 | 0.05 | 61 | 1006.9 |
| 20260505013532 | 20 | 198 | 8.0 | 16.1 | 0.00 | 0.08 | 0.05 | 61 | 1006.9 |
| 20260505013034 | 20 | 200 | 8.0 | 16.1 | 0.00 | 0.08 | 0.05 | 61 | 1006.9 |
| 20260505012531 | 20 | 207 | 8.0 | 14.5 | 0.00 | 0.08 | 0.05 | 60 | 1006.8 |
| 20260505012031 | 20 | 202 | 8.0 | 14.5 | 0.00 | 0.08 | 0.05 | 59 | 1006.9 |
| 20260505011533 | 21 | 198 | 11.3 | 17.7 | 0.00 | 0.08 | 0.05 | 59 | 1006.9 |
| 20260505011030 | 21 | 199 | 9.7 | 17.7 | 0.00 | 0.08 | 0.05 | 59 | 1006.9 |
| 20260505010532 | 21 | 210 | 11.3 | 16.1 | 0.00 | 0.08 | 0.05 | 58 | 1006.9 |
| 20260505010029 | 21 | 217 | 11.3 | 17.7 | 0.00 | 0.08 | 0.05 | 58 | 1006.9 |
| 20260505005529 | 21 | 223 | 11.3 | 17.7 | 0.00 | 0.08 | 0.05 | 58 | 1006.9 |
| 20260505005030 | 21 | 213 | 11.3 | 16.1 | 0.00 | 0.08 | 0.05 | 57 | 1006.8 |
| 20260505004536 | 21 | 223 | 9.7 | 17.7 | 0.00 | 0.08 | 0.05 | 57 | 1006.9 |
| 20260505004028 | 21 | 234 | 9.7 | 20.9 | 0.00 | 0.08 | 0.05 | 57 | 1006.9 |
| 20260505003528 | 21 | 222 | 12.9 | 20.9 | 0.00 | 0.08 | 0.05 | 56 | 1006.9 |
| 20260505003027 | 21 | 217 | 11.3 | 20.9 | 0.00 | 0.08 | 0.05 | 56 | 1006.8 |
| 20260505002528 | 22 | 223 | 14.5 | 20.9 | 0.00 | 0.08 | 0.05 | 56 | 1006.8 |
| 20260505002029 | 22 | 196 | 11.3 | 27.4 | 0.00 | 0.08 | 0.05 | 56 | 1006.8 |
| 20260505001634 | 22 | 200 | 12.9 | 27.4 | 0.00 | 0.08 | 0.05 | 55 | 1006.8 |
| 20260505001026 | 22 | 223 | 16.1 | 25.7 | 0.00 | 0.08 | 0.05 | 55 | 1006.7 |
| 20260505000526 | 22 | 211 | 12.9 | 25.7 | 0.00 | 0.08 | 0.05 | 54 | 1006.8 |
| 20260505000030 | 22 | 229 | 11.3 | 17.7 | 0.00 | 0.08 | 0.05 | 54 | 1007.0 |
| 20260504235525 | 22 | 215 | 11.3 | 17.7 | 0.00 | 0.08 | 0.05 | 54 | 1007.0 |
| 20260504235026 | 22 | 216 | 9.7 | 20.9 | 0.00 | 0.08 | 0.05 | 54 | 1007.0 |
| 20260504234524 | 23 | 224 | 9.7 | 27.4 | 0.00 | 0.08 | 0.05 | 53 | 1007.1 |
| 20260504234023 | 23 | 189 | 17.7 | 29.0 | 0.00 | 0.08 | 0.05 | 53 | 1007.2 |
| 20260504233523 | 23 | 205 | 11.3 | 24.1 | 0.00 | 0.08 | 0.05 | 53 | 1007.1 |
| 20260504233023 | 23 | 208 | 12.9 | 20.9 | 0.00 | 0.08 | 0.05 | 53 | 1007.2 |
| 20260504232523 | 23 | 231 | 14.5 | 22.5 | 0.00 | 0.08 | 0.05 | 52 | 1007.3 |
| 20260504232023 | 23 | 231 | 12.9 | 20.9 | 0.00 | 0.08 | 0.05 | 52 | 1007.3 |
| 20260504231524 | 23 | 234 | 11.3 | 22.5 | 0.00 | 0.08 | 0.05 | 52 | 1007.3 |
| 20260504231021 | 23 | 217 | 16.1 | 27.4 | 0.00 | 0.08 | 0.05 | 53 | 1007.3 |
| 20260504230521 | 23 | 203 | 16.1 | 25.7 | 0.00 | 0.08 | 0.05 | 52 | 1007.3 |
| 20260504230122 | 23 | 202 | 9.7 | 29.0 | 0.00 | 0.08 | 0.05 | 52 | 1007.5 |
| 20260504225520 | 23 | 207 | 14.5 | 29.0 | 0.00 | 0.08 | 0.05 | 50 | 1007.7 |
| 20260504225019 | 23 | 240 | 12.9 | 24.1 | 0.00 | 0.08 | 0.05 | 51 | 1007.6 |
| 20260504224518 | 23 | 200 | 17.7 | 24.1 | 0.00 | 0.08 | 0.05 | 51 | 1007.7 |
| 20260504224019 | 23 | 233 | 11.3 | 32.2 | 0.00 | 0.08 | 0.05 | 52 | 1007.7 |
| 20260504223518 | 23 | 221 | 16.1 | 30.6 | 0.00 | 0.08 | 0.05 | 50 | 1007.7 |
| 20260504223018 | 23 | 229 | 14.5 | 29.0 | 0.00 | 0.08 | 0.05 | 51 | 1007.8 |
| 20260504222518 | 23 | 243 | 16.1 | 29.0 | 0.00 | 0.08 | 0.05 | 51 | 1007.8 |
| 20260504222019 | 23 | 247 | 16.1 | 33.8 | 0.00 | 0.08 | 0.05 | 50 | 1007.8 |
| 20260504221521 | 23 | 232 | 16.1 | 32.2 | 0.00 | 0.08 | 0.05 | 50 | 1007.8 |
| 20260504221017 | 24 | 215 | 20.9 | 32.2 | 0.00 | 0.08 | 0.05 | 49 | 1007.7 |
| 20260504220517 | 24 | 248 | 12.9 | 35.4 | 0.00 | 0.08 | 0.05 | 52 | 1007.9 |
| 20260504220015 | 24 | 205 | 19.3 | 32.2 | 0.00 | 0.08 | 0.05 | 51 | 1007.7 |
| 20260504215515 | 24 | 225 | 11.3 | 32.2 | 0.00 | 0.08 | 0.05 | 53 | 1007.8 |
| 20260504215017 | 23 | 227 | 14.5 | 32.2 | 0.00 | 0.08 | 0.05 | 55 | 1007.7 |
| 20260504214515 | 23 | 254 | 14.5 | 35.4 | 0.00 | 0.08 | 0.05 | 54 | 1008.0 |
| 20260504214014 | 23 | 223 | 17.7 | 35.4 | 0.00 | 0.08 | 0.05 | 53 | 1008.0 |
| 20260504213514 | 24 | 222 | 14.5 | 30.6 | 0.00 | 0.08 | 0.05 | 54 | 1007.9 |
| 20260504213035 | 23 | 188 | 14.5 | 33.8 | 0.00 | 0.08 | 0.05 | 54 | 1007.8 |
| 20260504212516 | 23 | 219 | 16.1 | 33.8 | 0.00 | 0.08 | 0.05 | 54 | 1007.8 |
| 20260504212015 | 23 | 207 | 19.3 | 32.2 | 0.00 | 0.08 | 0.05 | 54 | 1007.8 |
| 20260504211517 | 24 | 221 | 9.7 | 27.4 | 0.00 | 0.08 | 0.05 | 57 | 1007.8 |
| 20260504211016 | 24 | 229 | 12.9 | 27.4 | 0.00 | 0.08 | 0.05 | 56 | 1007.8 |
| 20260504210512 | 24 | 246 | 11.3 | 25.7 | 0.00 | 0.08 | 0.05 | 57 | 1007.9 |
| 20260504210014 | 23 | 228 | 14.5 | 24.1 | 0.00 | 0.08 | 0.05 | 56 | 1007.9 |
| 20260504205511 | 23 | 202 | 12.9 | 37.0 | 0.00 | 0.08 | 0.05 | 56 | 1008.0 |
| 20260504205010 | 23 | 238 | 17.7 | 30.6 | 0.00 | 0.08 | 0.05 | 57 | 1008.1 |
| 20260504204511 | 23 | 207 | 12.9 | 29.0 | 0.00 | 0.08 | 0.05 | 56 | 1008.1 |
| 20260504204010 | 23 | 199 | 14.5 | 29.0 | 0.00 | 0.08 | 0.05 | 56 | 1008.1 |
| 20260504203513 | 23 | 273 | 11.3 | 25.7 | 0.00 | 0.08 | 0.05 | 55 | 1008.2 |
| 20260504203010 | 24 | 275 | 16.1 | 30.6 | 0.00 | 0.08 | 0.05 | 54 | 1008.4 |
| 20260504202508 | 24 | 273 | 8.0 | 27.4 | 0.00 | 0.08 | 0.05 | 56 | 1008.3 |
| 20260504202008 | 24 | 267 | 14.5 | 27.4 | 0.00 | 0.08 | 0.05 | 55 | 1008.4 |
| 20260504201512 | 24 | 261 | 12.9 | 27.4 | 0.00 | 0.08 | 0.05 | 57 | 1008.6 |
| 20260504201008 | 24 | 226 | 19.3 | 30.6 | 0.00 | 0.08 | 0.05 | 55 | 1008.7 |
| 20260504200504 | 23 | 269 | 14.5 | 24.1 | 0.00 | 0.08 | 0.05 | 57 | 1009.0 |
| 20260504200003 | 23 | 287 | 16.1 | 27.4 | 0.00 | 0.08 | 0.05 | 55 | 1008.9 |
| 20260504195502 | 23 | 216 | 14.5 | 30.6 | 0.00 | 0.08 | 0.05 | 57 | 1009.2 |
| 20260504195100 | 23 | 223 | 16.1 | 30.6 | 0.00 | 0.08 | 0.05 | 58 | 1009.3 |
| 20260504194608 | 23 | 247 | 14.5 | 27.4 | 0.00 | 0.08 | 0.05 | 58 | 1009.4 |
| 20260504194059 | 22 | 256 | 11.3 | 29.0 | 0.00 | 0.08 | 0.05 | 59 | 1009.4 |
| 20260504193558 | 22 | 213 | 9.7 | 27.4 | 0.00 | 0.08 | 0.05 | 59 | 1009.4 |
| 20260504193110 | 22 | 259 | 14.5 | 27.4 | 0.00 | 0.08 | 0.05 | 59 | 1009.7 |
| 20260504192556 | 22 | 274 | 11.3 | 30.6 | 0.00 | 0.08 | 0.05 | 59 | 1009.7 |
| 20260504192056 | 22 | 223 | 17.7 | 29.0 | 0.00 | 0.08 | 0.05 | 60 | 1009.7 |
| 20260504191556 | 22 | 194 | 16.1 | 27.4 | 0.00 | 0.08 | 0.05 | 60 | 1009.7 |
| 20260504191056 | 22 | 261 | 9.7 | 29.0 | 0.00 | 0.08 | 0.05 | 60 | 1009.7 |
| 20260504190559 | 22 | 234 | 12.9 | 29.0 | 0.00 | 0.08 | 0.05 | 59 | 1009.6 |
| 20260504190114 | 22 | 253 | 16.1 | 29.0 | 0.00 | 0.08 | 0.05 | 59 | 1009.6 |
| 20260504185554 | 22 | 267 | 19.3 | 32.2 | 0.00 | 0.08 | 0.05 | 59 | 1009.5 |
| 20260504185054 | 22 | 215 | 19.3 | 32.2 | 0.00 | 0.08 | 0.05 | 59 | 1009.5 |
| 20260504184600 | 22 | 205 | 14.5 | 30.6 | 0.00 | 0.08 | 0.05 | 59 | 1009.6 |
| 20260504184052 | 22 | 192 | 16.1 | 33.8 | 0.00 | 0.08 | 0.05 | 62 | 1009.5 |
| 20260504183556 | 22 | 230 | 20.9 | 35.4 | 0.00 | 0.08 | 0.05 | 62 | 1009.6 |
| 20260504183050 | 21 | 242 | 19.3 | 35.4 | 0.00 | 0.08 | 0.05 | 61 | 1009.5 |
| 20260504182555 | 21 | 208 | 17.7 | 30.6 | 0.00 | 0.08 | 0.05 | 65 | 1009.6 |
| 20260504182049 | 21 | 214 | 14.5 | 32.2 | 0.00 | 0.08 | 0.05 | 66 | 1009.6 |
| 20260504181546 | 20 | 196 | 20.9 | 32.2 | 0.00 | 0.08 | 0.05 | 65 | 1009.7 |
| 20260504181047 | 20 | 225 | 12.9 | 27.4 | 0.00 | 0.08 | 0.05 | 67 | 1009.8 |
| 20260504180546 | 20 | 247 | 14.5 | 32.2 | 0.00 | 0.08 | 0.05 | 68 | 1009.8 |
| 20260504180044 | 20 | 226 | 22.5 | 35.4 | 0.00 | 0.08 | 0.05 | 66 | 1009.9 |
| 20260504175541 | 19 | 217 | 22.5 | 35.4 | 0.00 | 0.08 | 0.05 | 68 | 1009.8 |
| 20260504175043 | 19 | 229 | 16.1 | 25.7 | 0.00 | 0.08 | 0.05 | 70 | 1009.7 |
| 20260504174538 | 18 | 205 | 14.5 | 24.1 | 0.00 | 0.08 | 0.05 | 70 | 1009.7 |
| 20260504174039 | 18 | 204 | 11.3 | 20.9 | 0.00 | 0.08 | 0.05 | 74 | 1009.9 |
| 20260504173539 | 17 | 211 | 11.3 | 20.9 | 0.00 | 0.08 | 0.05 | 74 | 1009.9 |
| 20260504173046 | 17 | 198 | 12.9 | 17.7 | 0.00 | 0.08 | 0.05 | 75 | 1010.0 |
| 20260504172537 | 16 | 196 | 11.3 | 25.7 | 0.00 | 0.08 | 0.05 | 76 | 1010.1 |
| 20260504172037 | 16 | 209 | 12.9 | 24.1 | 0.00 | 0.08 | 0.05 | 77 | 1010.0 |
| 20260504171537 | 16 | 212 | 14.5 | 24.1 | 0.00 | 0.08 | 0.05 | 78 | 1009.8 |
| 20260504171036 | 15 | 204 | 16.1 | 29.0 | 0.00 | 0.08 | 0.05 | 80 | 1009.9 |
| 20260504170537 | 15 | 216 | 16.1 | 29.0 | 0.00 | 0.08 | 0.05 | 80 | 1009.9 |
| 20260504151020 | 15 | 209 | 9.7 | 17.7 | 0.00 | 0.08 | 0.05 | 72 | 1010.2 |
| 20260504150521 | 15 | 175 | 9.7 | 17.7 | 0.00 | 0.08 | 0.05 | 73 | 1010.2 |
| 20260504141011 | 14 | 242 | 12.9 | 30.6 | 0.00 | 0.08 | 0.05 | 76 | 1010.7 |
| 20260504140508 | 13 | 186 | 16.1 | 33.8 | 0.00 | 0.08 | 0.05 | 76 | 1010.7 |
| 20260504130555 | 11 | 207 | 17.7 | 30.6 | 0.00 | 0.08 | 0.05 | 82 | 1011.9 |
| 20260504110538 | 11 | 206 | 11.3 | 24.1 | 0.00 | 0.03 | 0.00 | 75 | 1011.7 |
| 20260504100531 | 10 | 211 | 12.9 | 20.9 | 0.00 | 0.03 | 0.00 | 72 | 1011.7 |
| 20260504081510 | 10 | 203 | 12.9 | 17.7 | 0.00 | 0.03 | 0.00 | 67 | 1012.4 |
| 20260504081011 | 10 | 215 | 12.9 | 17.7 | 0.00 | 0.03 | 0.00 | 67 | 1012.5 |
| 20260504080510 | 11 | 194 | 9.7 | 14.5 | 0.00 | 0.03 | 0.00 | 67 | 1012.6 |
| 20260504050543 | 11 | 202 | 11.3 | 22.5 | 0.00 | 0.03 | 0.00 | 59 | 1014.1 |
| 20260504045542 | 12 | 194 | 11.3 | 19.3 | 0.00 | 0.03 | 0.00 | 59 | 1014.1 |
| 20260504045039 | 12 | 208 | 11.3 | 19.3 | 0.00 | 0.03 | 0.00 | 59 | 1014.2 |
| 20260504044554 | 12 | 210 | 11.3 | 17.7 | 0.00 | 0.03 | 0.00 | 59 | 1014.2 |
| 20260504044037 | 12 | 212 | 12.9 | 20.9 | 0.00 | 0.03 | 0.00 | 58 | 1014.2 |
| 20260504043536 | 12 | 205 | 14.5 | 20.9 | 0.00 | 0.03 | 0.00 | 58 | 1014.2 |
| 20260504043036 | 12 | 228 | 11.3 | 20.9 | 0.00 | 0.03 | 0.00 | 58 | 1014.2 |
| 20260504042534 | 12 | 209 | 11.3 | 20.9 | 0.00 | 0.03 | 0.00 | 57 | 1014.2 |
| 20260504042034 | 12 | 211 | 11.3 | 19.3 | 0.00 | 0.03 | 0.00 | 57 | 1014.2 |